Regional Weather Roundup
Issued by NWS

Home | Current Version | Previous Version | Text Only | Print | Product List | Glossary Off
Versions: 1 2 3 4 5 6 7 8 9 10 11 12 13 14 15 16 17 18 19 20 21 22 23 24 25 26 27 28 29 30 31 32 33 34 35 36 37 38 39 40 41 42 43 44 45 46 47 48 49 50

000
ASUS43 KBIS 101102
RWRND

NORTH DAKOTA REGIONAL WEATHER ROUNDUP
NATIONAL WEATHER SERVICE BISMARCK ND
500 AM CST WED FEB 10 2016

NOTE: "FAIR" INDICATES FEW OR NO CLOUDS BELOW 12,000 FEET WITH NO
SIGNIFICANT WEATHER AND/OR OBSTRUCTIONS TO VISIBILITY.


NDZ001>003-009>011-017-101200-
NORTHWEST NORTH DAKOTA

CITY           SKY/WX    TMP DP  RH WIND       PRES   REMARKS
WILLISTON      CLOUDY    26  22  84 SW7       29.80F WCI  18
MINOT          CLOUDY    19  12  74 E13       29.85F WCI   6
MINOT AFB      CLOUDY    16  13  88 SE16      29.85F WCI   1
$$

NDZ018>021-031>035-040>046-101200-
SOUTHWEST NORTH DAKOTA

CITY           SKY/WX    TMP DP  RH WIND       PRES   REMARKS
BISMARCK       PTCLDY    26  19  74 SE10      29.87F WCI  16
DICKINSON      CLOUDY    27  24  89 W9        29.79F WCI  18
GARRISON         N/A     21  18  88 E10       29.83F WCI  10
HETTINGER ARPT CLOUDY    25  21  85 NW5       29.85F WCI  19
$$

NDZ004>008-012>016-024-026-027-054-101200-
NORTHEAST NORTH DAKOTA

CITY           SKY/WX    TMP DP  RH WIND       PRES   REMARKS
GRAND FORKS    CLOUDY     5  -3  69 SE7       30.12F WCI  -7
GRND FRKS AFB  CLOUDY     4  -3  72 SE6       30.11F WCI  -7
DEVILS LAKE    LGT SNOW   4   0  83 SE14      30.01F FOG     WCI -14
$$

NDZ022-023-025-028>030-036>039-047>053-101200-
SOUTHEAST NORTH DAKOTA

CITY           SKY/WX    TMP DP  RH WIND       PRES   REMARKS
FARGO          CLOUDY     6  -1  73 E3        30.11F
JAMESTOWN      LGT SNOW   8   4  83 E12       29.99F FOG     WCI  -7
$$




USA.gov is the U.S. government's official web portal to all federal, state and local government web resources and services.